Location: Góry Miechowskie
(50.3599°N, 20.1803°E)
Time: 15:26:13
(UTC+00:00)

A-11 Canister half - Pass Details

Date: 21 September 2024
Orbit: 1515 x 1684 km, 47.2° (Epoch: 07 October)

Event Time Altitude Azimuth Distance (km) Brightness Sun altitude
Rises 22:23:27 0° 288° (WNW) 4,671 11.8 -39.4°
Reaches altitude 10° 22:27:04 10° 276° (W) 3,679 11.0 -39.4°
Enters shadow 22:28:50 15° 268° (W) 3,266 10.7 -39.4°
Maximum altitude 22:34:16 27° 224° (SW) 2,612 - -39.4°
Drops below altitude 10° 22:41:30 10° 172° (S) 3,690 - -39.4°
Sets 22:45:10 0° 161° (SSE) 4,687 - -39.3°
